sat.trackr.live / text

‹ back to catalog

STARLINK-1153

NORAD 45080 · 2020-006AN

PAYLOAD ACTIVE UNKNOWN

§ Identity

Operator
Country
US
Launch date
2020-01-29
Launch site
AFETR
Launch vehicle
Mass (kg)
RCS (m²)

Purposes: comms

External: N2YO · Heavens-Above · Gunter

§ Orbital elements

Epoch: 2026-09-20T03:55:32.822976Z

Period
93.09 min
Inclination
53.1535°
Eccentricity
0.0002976
Mean motion
15.46882417 rev/d
Perigee alt
423.8 km
Apogee alt
427.9 km
Semi-major
6,804.0 km
B*
8.6541e-4
RAAN
63.5243°
Arg perigee
239.4725°
Mean anomaly
120.5990°
Rev number
36,680

§ Raw data

STARLINK-11531 45080U 20006AN  26263.16357434  .00044043  00000+0  86541-3 0  99982 45080  53.1535  63.5243 0002976 239.4725 120.5990 15.46882417366805

JSON: /api/v1/satellites/45080 · /tle

For live sub-satellite position, see the globe view (requires WebGL).

§ Visibility from observer

Set your observer location to see the next 7 days of passes ≥ 10°. The values pass through the URL so the page stays shareable.

No JS? Fill the form by hand. The geolocation button needs JavaScript.